Location: Cardiff
(53.7833°N, 113.6000°W)
Time: 18:19:11
(UTC+00:00)

NOAA 15 - Pass Details

Date: 10 December 2023
Orbit: 796 x 810 km, 98.6° (Epoch: 21 February)

Event Time Altitude Azimuth Distance (km) Brightness Sun altitude
Rises 00:32:14 0° 117° (ESE) 3,322 7.4 -10.7°
Reaches altitude 10° 00:35:01 10° 103° (ESE) 2,393 6.6 -11.0°
Maximum altitude 00:38:59 22° 54° (NE) 1,699 5.7 -11.6°
Drops below altitude 10° 00:42:58 10° 5° (N) 2,397 6.8 -12.1°
Sets 00:45:45 0° 351° (N) 3,329 7.7 -12.5°
